Yukon, OK

9:28 PM CST on February 09, 2016 (GMT -0600)
Oklahoma City / Page Muni

Weather History for KRCE - October, 2012

Change the Weather History Date:

Saturday, October 6, 2012

  Actual Average (KOKC) Record (KOKC)
Temperature  
Mean Temperature 44 °F 66 °F  
Max Temperature 48 °F 77 °F 94 °F (1939)
Min Temperature 37 °F 55 °F 37 °F (2001)
Degree Days  
Heating Degree Days 22 3  
Month to date heating degree days 14  
Since 1 July heating degree days 33  
Cooling Degree Days 0 4  
Month to date cooling degree days 25  
Year to date cooling degree days 2050  
Moisture  
Dew Point 32 °F    
Average Humidity 65    
Maximum Humidity 81    
Minimum Humidity 50    
Precipitation  
Precipitation 0.00 in 0.11 in 1.38 in (1989)
Month to date precipitation 0.71  
Year to date precipitation 29.66  
Snow  
Snow 0.00 in 0.00 in 0.00 in ()
Month to date snowfall 0.0  
Since 1 July snowfall 0.0  
Snow Depth -    
Sea Level Pressure  
Sea Level Pressure 30.29 in    
Wind  
Wind Speed 11 mph (NE)    
Max Wind Speed 18 mph    
Max Gust Speed 24 mph    
Visibility 10 miles    
Events      
T = Trace of Precipitation, MM = Missing Value Source: NWS Daily Summary

Daily Weather History Graph

Daily Weather History Graph

Search for Another Location

Airport or City:

Trip Planner

Search our weather history database for the weather conditions in past years. The results will help you decide how hot, cold, wet, or windy it might be!

Date:

Astronomy

Oct. 06, 2012 Rise Set
Actual Time 7:30 AM CDT 7:07 PM CDT
Civil Twilight 7:05 AM CDT 7:32 PM CDT
Nautical Twilight 6:35 AM CDT 8:02 PM CDT
Astronomical Twilight 6:06 AM CDT 8:31 PM CDT
Moon 11:33 PM CDT (10/6) 1:16 PM CDT (10/6)
Length of Visible Light 12h 27m
Length of Day
11h 36m
Waning Gibbous, 65% of the Moon is Illuminated
Oct 6
Waning Gibbous
Oct 8
Last Quarter
Oct 15
New
Oct 21
First Quarter
Oct 29
Full

Hourly Weather History & Observations

Time (CDT) Temp. Windchill Dew Point Humidity Pressure Visibility Wind Dir Wind Speed Gust Speed Precip Events Conditions
12:15 AM 44.6 °F 38.8 °F 33.8 °F 66% 30.26 in 10.0 mi NE 11.5 mph - N/A   Unknown
12:35 AM 44.6 °F 38.8 °F 33.8 °F 66% 30.26 in 10.0 mi NE 11.5 mph - N/A   Unknown
12:55 AM 42.8 °F 37.0 °F 35.6 °F 76% 30.25 in 10.0 mi NE 10.4 mph - N/A   Unknown
1:15 AM 42.8 °F 37.0 °F 35.6 °F 76% 30.26 in 10.0 mi NNE 10.4 mph - N/A   Unknown
1:55 AM 41.0 °F 34.3 °F 35.6 °F 81% 30.27 in 10.0 mi NNE 11.5 mph - N/A   Unknown
2:35 AM 41.0 °F 34.7 °F 33.8 °F 76% 30.28 in 10.0 mi NNE 10.4 mph - N/A   Unknown
2:55 AM 41.0 °F 34.3 °F 33.8 °F 76% 30.28 in 10.0 mi NNE 11.5 mph - N/A   Unknown
3:15 AM 41.0 °F 33.5 °F 32.0 °F 70% 30.27 in 10.0 mi NNE 13.8 mph 20.7 mph N/A   Unknown
3:35 AM 41.0 °F 33.5 °F 32.0 °F 70% 30.27 in 10.0 mi NE 13.8 mph - N/A   Unknown
3:55 AM 41.0 °F 33.5 °F 33.8 °F 76% 30.26 in 10.0 mi NE 13.8 mph - N/A   Unknown
4:55 AM 41.0 °F 34.3 °F 33.8 °F 76% 30.25 in 10.0 mi NE 11.5 mph - N/A   Unknown
5:15 AM 41.0 °F 35.2 °F 35.6 °F 81% 30.26 in 10.0 mi ENE 9.2 mph 17.3 mph N/A   Unknown
5:35 AM 41.0 °F 35.2 °F 35.6 °F 81% 30.26 in 10.0 mi ENE 9.2 mph - N/A   Unknown
5:55 AM 41.0 °F 36.4 °F 35.6 °F 81% 30.27 in 10.0 mi NE 6.9 mph - N/A   Unknown
6:15 AM 42.8 °F 37.5 °F 35.6 °F 76% 30.28 in 10.0 mi NE 9.2 mph - N/A   Unknown
6:35 AM 42.8 °F 37.5 °F 35.6 °F 76% 30.28 in 10.0 mi NE 9.2 mph - N/A   Unknown
6:55 AM 42.8 °F 38.0 °F 35.6 °F 76% 30.28 in 10.0 mi NE 8.1 mph - N/A   Unknown
7:15 AM 42.8 °F 38.6 °F 35.6 °F 76% 30.28 in 10.0 mi NE 6.9 mph - N/A   Unknown
7:35 AM 42.8 °F 37.5 °F 35.6 °F 76% 30.28 in 10.0 mi NE 9.2 mph - N/A   Overcast
7:55 AM 42.8 °F 38.6 °F 35.6 °F 76% 30.29 in 10.0 mi NE 6.9 mph - N/A   Overcast
8:15 AM 44.6 °F 39.7 °F 33.8 °F 66% 30.29 in 10.0 mi NE 9.2 mph - N/A   Overcast
8:35 AM 44.6 °F 40.2 °F 33.8 °F 66% 30.31 in 10.0 mi NE 8.1 mph - N/A   Overcast
8:55 AM 44.6 °F 39.7 °F 33.8 °F 66% 30.30 in 10.0 mi NE 9.2 mph - N/A   Overcast
9:15 AM 44.6 °F 39.7 °F 33.8 °F 66% 30.30 in 10.0 mi NE 9.2 mph - N/A   Overcast
9:35 AM 44.6 °F 39.7 °F 33.8 °F 66% 30.31 in 10.0 mi NE 9.2 mph - N/A   Overcast
9:55 AM 44.6 °F 39.2 °F 32.0 °F 61% 30.31 in 10.0 mi NE 10.4 mph - N/A   Overcast
10:15 AM 44.6 °F 38.4 °F 32.0 °F 61% 30.32 in 10.0 mi NNE 12.7 mph - N/A   Overcast
10:35 AM 44.6 °F 38.8 °F 32.0 °F 61% 30.32 in 10.0 mi NNE 11.5 mph - N/A   Overcast
10:55 AM 44.6 °F 38.1 °F 32.0 °F 61% 30.32 in 10.0 mi NE 13.8 mph - N/A   Overcast
11:35 AM 46.4 °F 40.4 °F 32.0 °F 57% 30.31 in 10.0 mi ENE 13.8 mph 18.4 mph N/A   Overcast
11:55 AM 46.4 °F 39.8 °F 32.0 °F 57% 30.32 in 10.0 mi NE 16.1 mph 20.7 mph N/A   Overcast
12:15 PM 46.4 °F 40.1 °F 32.0 °F 57% 30.30 in 10.0 mi NE 15.0 mph 19.6 mph N/A   Overcast
12:35 PM 46.4 °F 39.5 °F 30.2 °F 53% 30.31 in 10.0 mi NE 17.3 mph 21.9 mph N/A   Overcast
12:55 PM 46.4 °F 40.1 °F 28.4 °F 50% 30.30 in 10.0 mi ENE 15.0 mph 21.9 mph N/A   Overcast
1:15 PM 48.2 °F - 32.0 °F 54% 30.31 in 10.0 mi NE 18.4 mph - N/A   Overcast
1:35 PM 46.4 °F 40.4 °F 28.4 °F 50% 30.30 in 10.0 mi NE 13.8 mph 20.7 mph N/A   Overcast
1:55 PM 46.4 °F 39.2 °F 30.2 °F 53% 30.29 in 10.0 mi NE 18.4 mph 24.2 mph N/A   Overcast
2:15 PM 46.4 °F 39.5 °F 28.4 °F 50% 30.27 in 10.0 mi NE 17.3 mph 23.0 mph N/A   Overcast
2:35 PM 46.4 °F 39.5 °F 28.4 °F 50% 30.28 in 10.0 mi NE 17.3 mph 23.0 mph N/A   Overcast
2:55 PM 46.4 °F 40.4 °F 28.4 °F 50% 30.28 in 10.0 mi NE 13.8 mph 20.7 mph N/A   Overcast
3:15 PM 46.4 °F 39.8 °F 30.2 °F 53% 30.27 in 10.0 mi NE 16.1 mph 20.7 mph N/A   Overcast
3:35 PM 46.4 °F 40.4 °F 30.2 °F 53% 30.26 in 10.0 mi ENE 13.8 mph - N/A   Overcast
3:55 PM 46.4 °F 40.7 °F 28.4 °F 50% 30.26 in 10.0 mi ENE 12.7 mph - N/A   Overcast
4:15 PM 46.4 °F 40.1 °F 28.4 °F 50% 30.27 in 10.0 mi NE 15.0 mph 19.6 mph N/A   Overcast
4:35 PM 46.4 °F 40.1 °F 28.4 °F 50% 30.27 in 10.0 mi NE 15.0 mph 21.9 mph N/A   Mostly Cloudy
4:55 PM 46.4 °F 40.1 °F 28.4 °F 50% 30.27 in 10.0 mi ENE 15.0 mph 23.0 mph N/A   Mostly Cloudy
5:15 PM 46.4 °F 40.4 °F 30.2 °F 53% 30.27 in 10.0 mi NE 13.8 mph - N/A   Overcast
5:35 PM 46.4 °F 41.1 °F 30.2 °F 53% 30.28 in 10.0 mi NE 11.5 mph - N/A   Overcast
5:55 PM 48.2 °F - 30.2 °F 50% 30.28 in 10.0 mi NE 13.8 mph - N/A   Overcast
6:15 PM 46.4 °F 40.1 °F 28.4 °F 50% 30.28 in 10.0 mi NE 15.0 mph - N/A   Overcast
6:35 PM 46.4 °F 40.4 °F 28.4 °F 50% 30.29 in 10.0 mi NE 13.8 mph 18.4 mph N/A   Overcast
6:55 PM 46.4 °F 40.7 °F 30.2 °F 53% 30.29 in 10.0 mi NE 12.7 mph - N/A   Overcast
7:15 PM 46.4 °F 41.1 °F 32.0 °F 57% 30.29 in 10.0 mi NE 11.5 mph - N/A   Overcast
7:35 PM 44.6 °F 38.4 °F 32.0 °F 61% 30.30 in 10.0 mi NE 12.7 mph - N/A   Unknown
7:55 PM 44.6 °F 39.2 °F 32.0 °F 61% 30.31 in 10.0 mi NE 10.4 mph 19.6 mph N/A   Unknown
8:15 PM 44.6 °F 38.8 °F 32.0 °F 61% 30.32 in 10.0 mi NE 11.5 mph - N/A   Unknown
8:35 PM 44.6 °F 39.7 °F 32.0 °F 61% 30.32 in 10.0 mi NE 9.2 mph - N/A   Unknown
8:55 PM 42.8 °F 38.6 °F 32.0 °F 66% 30.32 in 10.0 mi NE 6.9 mph - N/A   Unknown
9:15 PM 39.2 °F 34.2 °F 32.0 °F 75% 30.33 in 10.0 mi NE 6.9 mph - N/A   Unknown
9:35 PM 39.2 °F 35.0 °F 32.0 °F 75% 30.34 in 10.0 mi NNE 5.8 mph - N/A   Unknown
9:55 PM 39.2 °F 35.0 °F 32.0 °F 75% 30.34 in 10.0 mi North 5.8 mph - N/A   Unknown
10:15 PM 39.2 °F 35.0 °F 32.0 °F 75% 30.34 in 10.0 mi NNE 5.8 mph - N/A   Unknown
10:35 PM 39.2 °F 35.0 °F 32.0 °F 75% 30.35 in 10.0 mi NNE 5.8 mph - N/A   Unknown
10:55 PM 39.2 °F 35.9 °F 32.0 °F 75% 30.35 in 10.0 mi NNE 4.6 mph - N/A   Unknown
11:15 PM 39.2 °F 37.0 °F 32.0 °F 75% 30.35 in 10.0 mi North 3.5 mph - N/A   Unknown
11:35 PM 39.2 °F 35.9 °F 32.0 °F 75% 30.36 in 10.0 mi North 4.6 mph - N/A   Unknown
11:55 PM 37.4 °F 32.8 °F 32.0 °F 81% 30.36 in 10.0 mi North 5.8 mph - N/A   Unknown